Time,TemperatureF,DewpointF,PressureIn,WindDirection,WindDirectionDegrees,WindSpeedMPH,WindSpeedGustMPH,Humidity,HourlyPrecipIn,Conditions,Clouds,dailyrainin,SoftwareType,DateUTC
2013-01-19 00:02:00,38.0,18.0,30.25,ESE,123,3.0,4.0,43,0.00,,,0.00,,2013-01-19 08:02:00,
2013-01-19 00:22:00,37.0,13.0,30.25,SE,134,2.0,4.0,36,0.00,,,0.00,,2013-01-19 08:22:00,
2013-01-19 00:32:00,37.0,13.0,30.25,SE,133,1.0,2.0,37,0.00,,,0.00,,2013-01-19 08:32:00,
2013-01-19 00:53:00,38.0,15.0,30.25,SSE,148,3.0,4.0,39,0.00,,,0.00,,2013-01-19 08:53:00,
2013-01-19 01:02:00,37.0,13.0,30.25,SE,138,1.0,2.0,36,0.00,,,0.00,,2013-01-19 09:02:00,
2013-01-19 01:32:00,36.0,10.0,30.25,SE,126,3.0,3.0,33,0.00,,,0.00,,2013-01-19 09:32:00,
2013-01-19 01:52:00,36.0,9.0,30.25,SE,135,1.0,3.0,32,0.00,,,0.00,,2013-01-19 09:52:00,
2013-01-19 02:01:00,36.0,9.0,30.25,SE,139,2.0,4.0,32,0.00,,,0.00,,2013-01-19 10:01:00,
2013-01-19 02:22:00,36.0,5.0,30.26,SE,146,3.0,5.0,27,0.00,,,0.00,,2013-01-19 10:22:00,
2013-01-19 02:32:00,36.0,4.0,30.26,SE,146,2.0,4.0,26,0.00,,,0.00,,2013-01-19 10:32:00,
2013-01-19 02:53:00,36.0,6.0,30.26,SE,134,4.0,5.0,28,0.00,,,0.00,,2013-01-19 10:53:00,
2013-01-19 03:02:00,37.0,8.0,30.26,SE,136,4.0,6.0,29,0.00,,,0.00,,2013-01-19 11:02:00,
2013-01-19 04:47:00,40.0,33.0,30.25,ENE,69,3.0,6.0,75,0.00,,,0.00,,2013-01-19 12:47:00,
2013-01-19 04:53:00,40.0,36.0,30.25,ESE,120,2.0,4.0,84,0.00,,,0.00,,2013-01-19 12:53:00,
2013-01-19 05:02:00,39.0,31.0,30.26,ENE,67,3.0,5.0,72,0.00,,,0.00,,2013-01-19 13:02:00,
2013-01-19 05:12:00,39.0,31.0,30.26,ENE,67,3.0,5.0,72,0.00,,,0.00,,2013-01-19 13:12:00,
2013-01-19 05:22:00,39.0,34.0,30.26,NE,38,7.0,10.0,83,0.00,,,0.00,,2013-01-19 13:22:00,
2013-01-19 05:32:00,39.0,34.0,30.26,NNE,12,4.0,7.0,82,0.00,,,0.00,,2013-01-19 13:32:00,
2013-01-19 05:42:00,39.0,34.0,30.26,NNE,12,4.0,7.0,82,0.00,,,0.00,,2013-01-19 13:42:00,
2013-01-19 05:53:00,40.0,39.0,30.26,NE,55,5.0,9.0,98,0.00,,,0.00,,2013-01-19 13:53:00,
2013-01-19 06:02:00,40.0,40.0,30.26,ENE,66,5.0,7.0,100,0.00,,,0.00,,2013-01-19 14:02:00,
2013-01-19 06:12:00,40.0,40.0,30.26,ENE,66,5.0,7.0,100,0.00,,,0.00,,2013-01-19 14:12:00,
2013-01-19 06:22:00,41.0,41.0,30.27,NE,39,8.0,12.0,100,0.00,,,0.00,,2013-01-19 14:22:00,
2013-01-19 06:33:00,42.0,42.0,30.27,East,90,6.0,12.0,100,0.00,,,0.00,,2013-01-19 14:33:00,
2013-01-19 06:53:00,43.0,43.0,30.27,East,84,6.0,9.0,100,0.00,,,0.00,,2013-01-19 14:53:00,
2013-01-19 07:02:00,44.0,44.0,30.27,East,84,5.0,14.0,100,0.00,,,0.00,,2013-01-19 15:02:00,
2013-01-19 07:22:00,44.0,44.0,30.27,ESE,113,7.0,12.0,100,0.00,,,0.00,,2013-01-19 15:22:00,
2013-01-19 07:32:00,43.0,43.0,30.27,SE,138,6.0,9.0,100,0.00,,,0.00,,2013-01-19 15:32:00,
2013-01-19 07:53:00,41.0,41.0,30.27,SE,134,5.0,7.0,100,0.00,,,0.00,,2013-01-19 15:53:00,
2013-01-19 08:02:00,41.0,41.0,30.27,East,97,5.0,7.0,100,0.00,,,0.00,,2013-01-19 16:02:00,
2013-01-19 08:22:00,42.0,42.0,30.28,ENE,66,4.0,9.0,100,0.00,,,0.00,,2013-01-19 16:22:00,
2013-01-19 08:32:00,42.0,42.0,30.29,SE,124,6.0,7.0,100,0.00,,,0.00,,2013-01-19 16:32:00,
2013-01-19 08:53:00,41.0,41.0,30.29,ESE,118,5.0,7.0,100,0.00,,,0.00,,2013-01-19 16:53:00,
2013-01-19 09:02:00,41.0,41.0,30.30,ESE,116,5.0,7.0,100,0.00,,,0.00,,2013-01-19 17:02:00,
2013-01-19 09:25:00,42.0,42.0,30.31,SE,125,5.0,6.0,100,0.00,,,0.00,,2013-01-19 17:25:00,
2013-01-19 09:33:00,43.0,43.0,30.31,SE,144,4.0,6.0,100,0.00,,,0.00,,2013-01-19 17:33:00,
2013-01-19 09:54:00,44.0,44.0,30.32,SSE,153,3.0,4.0,100,0.00,,,0.00,,2013-01-19 17:54:00,
2013-01-19 10:03:00,45.0,45.0,30.32,SSE,165,2.0,4.0,100,0.00,,,0.00,,2013-01-19 18:03:00,
2013-01-19 10:24:00,47.0,47.0,30.33,SSE,165,3.0,4.0,100,0.00,,,0.00,,2013-01-19 18:24:00,
2013-01-19 10:32:00,46.0,46.0,30.33,SSW,192,3.0,6.0,100,0.00,,,0.00,,2013-01-19 18:32:00,
2013-01-19 10:53:00,45.0,45.0,30.33,South,179,3.0,5.0,100,0.00,,,0.00,,2013-01-19 18:53:00,
2013-01-19 11:04:00,46.0,46.0,30.33,SW,214,4.0,5.0,100,0.00,,,0.00,,2013-01-19 19:04:00,
2013-01-19 11:13:00,46.0,46.0,30.33,SW,214,4.0,5.0,100,0.00,,,0.00,,2013-01-19 19:13:00,
2013-01-19 11:43:00,45.0,45.0,30.33,SW,221,4.0,9.0,100,0.00,,,0.00,,2013-01-19 19:43:00,
2013-01-19 11:55:00,46.0,46.0,30.33,SW,214,4.0,6.0,100,0.00,,,0.00,,2013-01-19 19:55:00,
2013-01-19 12:03:00,45.0,45.0,30.32,SW,223,5.0,9.0,100,0.00,,,0.00,,2013-01-19 20:03:00,
2013-01-19 12:13:00,45.0,45.0,30.32,SW,223,5.0,9.0,100,0.00,,,0.00,,2013-01-19 20:13:00,
2013-01-19 12:23:00,45.0,45.0,30.31,SW,231,4.0,7.0,100,0.00,,,0.00,,2013-01-19 20:23:00,
2013-01-19 12:33:00,45.0,45.0,30.31,SW,229,4.0,8.0,100,0.00,,,0.00,,2013-01-19 20:33:00,
2013-01-19 12:43:00,45.0,45.0,30.31,SW,229,4.0,8.0,100,0.00,,,0.00,,2013-01-19 20:43:00,
2013-01-19 12:55:00,45.0,45.0,30.31,WSW,242,5.0,6.0,100,0.00,,,0.00,,2013-01-19 20:55:00,
2013-01-19 13:02:00,45.0,45.0,30.31,SW,232,4.0,7.0,100,0.00,,,0.00,,2013-01-19 21:02:00,
2013-01-19 13:22:00,44.0,44.0,30.31,WSW,238,4.0,7.0,100,0.00,,,0.00,,2013-01-19 21:22:00,
2013-01-19 13:34:00,44.0,44.0,30.30,WSW,246,3.0,5.0,100,0.00,,,0.00,,2013-01-19 21:34:00,
2013-01-19 13:58:00,44.0,44.0,30.31,WSW,250,3.0,6.0,100,0.00,,,0.00,,2013-01-19 21:58:00,
2013-01-19 14:03:00,43.0,43.0,30.30,WSW,245,5.0,6.0,100,0.00,,,0.00,,2013-01-19 22:03:00,
2013-01-19 14:23:00,43.0,43.0,30.29,SW,234,4.0,6.0,100,0.00,,,0.00,,2013-01-19 22:23:00,
2013-01-19 14:33:00,43.0,43.0,30.30,West,259,2.0,4.0,100,0.00,,,0.00,,2013-01-19 22:33:00,
2013-01-19 14:44:00,43.0,43.0,30.30,West,259,2.0,4.0,100,0.00,,,0.00,,2013-01-19 22:44:00,
2013-01-19 14:55:00,43.0,43.0,30.30,West,260,2.0,4.0,100,0.00,,,0.00,,2013-01-19 22:55:00,
2013-01-19 15:03:00,43.0,43.0,30.30,WSW,256,2.0,5.0,100,0.00,,,0.00,,2013-01-19 23:03:00,
2013-01-19 15:13:00,43.0,43.0,30.30,WSW,256,2.0,5.0,100,0.00,,,0.00,,2013-01-19 23:13:00,
2013-01-19 15:24:00,43.0,43.0,30.30,WSW,257,2.0,3.0,100,0.00,,,0.00,,2013-01-19 23:24:00,
2013-01-19 15:33:00,43.0,42.0,30.30,South,185,1.0,4.0,98,0.00,,,0.00,,2013-01-19 23:33:00,
2013-01-19 15:43:00,43.0,42.0,30.30,South,185,1.0,4.0,98,0.00,,,0.00,,2013-01-19 23:43:00,
2013-01-19 16:02:00,43.0,41.0,30.30,SW,223,2.0,4.0,93,0.00,,,0.00,,2013-01-20 00:02:00,
2013-01-19 16:13:00,42.0,39.0,30.30,WSW,240,0.0,5.0,89,0.00,,,0.00,,2013-01-20 00:13:00,
2013-01-19 16:23:00,42.0,38.0,30.30,West,267,2.0,4.0,86,0.00,,,0.00,,2013-01-20 00:23:00,
2013-01-19 16:33:00,42.0,38.0,30.31,WNW,283,3.0,5.0,85,0.00,,,0.00,,2013-01-20 00:33:00,
2013-01-19 16:44:00,42.0,38.0,30.31,WNW,283,3.0,5.0,85,0.00,,,0.00,,2013-01-20 00:44:00,
2013-01-19 16:55:00,42.0,36.0,30.31,WNW,300,3.0,4.0,79,0.00,,,0.00,,2013-01-20 00:55:00,
2013-01-19 17:02:00,42.0,35.0,30.31,West,275,1.0,3.0,77,0.00,,,0.00,,2013-01-20 01:02:00,
2013-01-19 17:13:00,42.0,35.0,30.31,West,275,1.0,3.0,77,0.00,,,0.00,,2013-01-20 01:13:00,
2013-01-19 17:22:00,42.0,34.0,30.31,WNW,301,3.0,6.0,74,0.00,,,0.00,,2013-01-20 01:22:00,
2013-01-19 17:33:00,42.0,34.0,30.31,WNW,290,3.0,5.0,73,0.00,,,0.00,,2013-01-20 01:33:00,
2013-01-19 17:43:00,42.0,34.0,30.31,WNW,290,3.0,5.0,73,0.00,,,0.00,,2013-01-20 01:43:00,
2013-01-19 18:00:00,42.0,32.0,30.32,WNW,290,4.0,6.0,68,0.00,,,0.00,,2013-01-20 02:00:00,
2013-01-19 18:24:00,42.0,32.0,30.32,North,350,4.0,6.0,68,0.00,,,0.00,,2013-01-20 02:24:00,
2013-01-19 18:33:00,42.0,33.0,30.32,NW,308,3.0,5.0,70,0.00,,,0.00,,2013-01-20 02:33:00,
2013-01-19 18:43:00,42.0,33.0,30.32,NW,308,3.0,5.0,70,0.00,,,0.00,,2013-01-20 02:43:00,
2013-01-19 18:57:00,42.0,32.0,30.32,NNW,339,1.0,3.0,67,0.00,,,0.00,,2013-01-20 02:57:00,
2013-01-19 19:03:00,42.0,32.0,30.32,NE,42,2.0,4.0,68,0.00,,,0.00,,2013-01-20 03:03:00,
2013-01-19 19:23:00,43.0,35.0,30.33,ENE,67,3.0,5.0,72,0.00,,,0.00,,2013-01-20 03:23:00,
2013-01-19 19:33:00,42.0,33.0,30.33,ENE,71,3.0,5.0,70,0.00,,,0.00,,2013-01-20 03:33:00,
2013-01-19 19:55:00,42.0,32.0,30.33,ENE,59,4.0,5.0,68,0.00,,,0.00,,2013-01-20 03:55:00,
2013-01-19 20:23:00,42.0,30.0,30.34,ENE,75,4.0,9.0,63,0.00,,,0.00,,2013-01-20 04:23:00,
2013-01-19 20:33:00,42.0,31.0,30.34,NE,55,4.0,7.0,64,0.00,,,0.00,,2013-01-20 04:33:00,
2013-01-19 20:55:00,42.0,29.0,30.34,ENE,59,5.0,7.0,59,0.00,,,0.00,,2013-01-20 04:55:00,
2013-01-19 21:02:00,41.0,25.0,30.34,ENE,66,6.0,9.0,52,0.00,,,0.00,,2013-01-20 05:02:00,
2013-01-19 21:22:00,41.0,23.0,30.34,East,81,2.0,6.0,49,0.00,,,0.00,,2013-01-20 05:22:00,
2013-01-19 21:32:00,41.0,23.0,30.33,NE,44,1.0,5.0,48,0.00,,,0.00,,2013-01-20 05:32:00,
2013-01-19 21:52:00,41.0,21.0,30.33,NE,43,2.0,5.0,44,0.00,,,0.00,,2013-01-20 05:52:00,
2013-01-19 22:02:00,40.0,16.0,30.33,NE,53,2.0,4.0,38,0.00,,,0.00,,2013-01-20 06:02:00,
2013-01-19 22:22:00,40.0,12.0,30.33,ENE,65,0.0,2.0,31,0.00,,,0.00,,2013-01-20 06:22:00,
2013-01-19 22:32:00,39.0,6.0,30.33,ENE,65,0.0,1.0,25,0.00,,,0.00,,2013-01-20 06:32:00,
2013-01-19 22:52:00,39.0,5.0,30.33,ENE,65,0.0,0.0,24,0.00,,,0.00,,2013-01-20 06:52:00,
2013-01-19 23:02:00,39.0,2.0,30.33,ENE,65,1.0,1.0,21,0.00,,,0.00,,2013-01-20 07:02:00,
2013-01-19 23:22:00,38.0,-5.0,30.33,ENE,65,0.0,0.0,15,0.00,,,0.00,,2013-01-20 07:22:00,
2013-01-19 23:32:00,37.0,-11.0,30.33,ENE,65,1.0,2.0,12,0.00,,,0.00,,2013-01-20 07:32:00,
2013-01-19 23:52:00,37.0,-19.0,30.33,ENE,65,0.0,2.0,8,0.00,,,0.00,,2013-01-20 07:52:00,